Location: Chuathbaluk
(61.5726°N, 159.2454°W)
Time: 17:26:43
(UTC+00:00)

ITAMSAT 1 - Pass Details

Date: 22 January 2021
Orbit: 784 x 796 km, 98.9° (Epoch: 05 March)

Event Time Altitude Azimuth Distance (km) Brightness Sun altitude
Rises 05:38:59 0° 213° (SSW) 3,276 11.3 -23.1°
Reaches altitude 10° 05:42:00 10° 231° (SW) 2,350 10.7 -23.5°
Maximum altitude 05:45:36 19° 275° (W) 1,823 10.4 -23.9°
Drops below altitude 10° 05:49:12 10° 319° (NW) 2,358 10.7 -24.4°
Sets 05:52:15 0° 338° (NNW) 3,291 11.2 -24.7°
